Location: Chippewa Lake
(41.0698°N, 81.9010°W)
Time: 15:22:18
(UTC+00:00)

SL-8 Rocket - Pass Details

Date: 04 October 2021
Orbit: 957 x 990 km, 82.9° (Epoch: 24 October)

Event Time Altitude Azimuth Distance (km) Brightness Sun altitude
Rises 02:00:04 0° 234° (SW) 3,685 7.3 -32.9°
Reaches altitude 10° 02:03:34 10° 253° (WSW) 2,745 6.8 -33.5°
Maximum altitude 02:07:33 17° 293° (WNW) 2,266 6.6 -34.1°
Drops below altitude 10° 02:11:34 10° 333° (NNW) 2,760 6.9 -34.8°
Sets 02:15:08 0° 353° (N) 3,713 7.5 -35.4°
